Simultaneous Nadir Overpasses (SNOs) Predictions

Prediction of SNOs between NOAA-19 and TERRA Satellite Orbit:

Table of predicted SNOs for the next 14.0 days since TLE Epoch: 5/28/2022
Index Date (NOAA-19) Time (NOAA-19) Lat,Lon (NOAA-19) SZA (NOAA-19 ) Date (TERRA) Time (TERRA) Lat,Lon (TERRA) SZA (TERRA ) Distance(km) Time Diff (sec)
1 05/29/2022 15:09:17 -80.77, 168.56 119.02 05/29/2022 15:09:34 -80.77, 168.50 119.02 1.16 17
2 05/31/2022 20:42:17 80.78, -94.85 60.64 05/31/2022 20:43:10 80.77, -94.89 60.66 1.08 53
3 05/31/2022 21:33:13 -80.77, 72.74 119.34 05/31/2022 21:32:37 -80.76, 72.69 119.36 0.93 36
4 06/03/2022 03:06:13 80.77, 169.44 60.36 06/03/2022 03:06:12 80.79, 169.53 60.38 2.38 1
5 06/05/2022 08:39:05 -80.78, -93.89 119.91 06/05/2022 08:39:48 -80.77, -94.07 119.92 3.36 43
6 06/05/2022 09:30:08 80.77, 73.66 60.11 06/05/2022 09:29:14 80.77, 73.53 60.07 2.33 54
7 06/07/2022 15:03:01 -80.78, 170.15 120.15 06/07/2022 15:02:50 -80.78, 170.20 120.15 0.95 11
8 06/09/2022 20:36:02 80.78, -93.29 59.64 06/09/2022 20:36:25 80.77, -93.27 59.64 1.50 23



Historial Predications of SNOs between NOAA-19 and TERRA
